Location: Unspecified
(38.7223°N, 0.0000°E)
Time: 20:26:46
(UTC+00:00)

Hubble Space Telescope - Visible Passes

Search period start: 24 June 2019 00:00
Search period end: 04 July 2019 00:00
Orbit: 536 x 540 km, 28.5° (Epoch: 24 June)

Date Brightness Start Highest point End Pass type
(mag) Time Alt. Az. Time Alt. Az. Time Alt. Az.
25 Jun 3.1 21:19:07 10° SSW 21:19:24 11° SSW 21:19:24 11° SSW visible
26 Jun 2.6 21:08:18 10° SW 21:09:58 16° SSW 21:09:58 16° SSW visible
27 Jun 2.3 20:57:33 10° SW 21:00:21 19° S 21:00:21 19° S visible
28 Jun 2.2 20:46:51 10° SW 20:49:50 19° S 20:50:33 19° SSE visible
29 Jun 2.3 20:36:11 10° SW 20:39:13 20° S 20:40:38 17° SSE visible
30 Jun 2.4 20:25:34 10° SW 20:28:35 19° S 20:30:37 14° SSE visible
01 Jul 2.4 20:15:01 10° SW 20:17:57 19° S 20:20:33 11° SE visible
02 Jul 2.5 20:04:28 10° SW 20:07:19 18° S 20:10:10 10° SE visible
